Back to catalog

FENGYUN 1C DEB

AliveSSO
NORAD 37917·DEBRIS·🇨🇳 China

Launched May 10, 1999 from Taiyuan Satellite Launch Center

Loading…

Next Passes (next 24 hours)

TLE

FreshSource: Space-Track

Epoch: Sep 12, 2026, 12:21 UTC

1 37917U 99025ENS 26255.51467947  .00000992  00000-0  53182-3 0  9997
2 37917  98.9319 358.5059 0045609 353.5469   6.5111 14.14882128676947

Track FENGYUN 1C DEB in real time with AllMySat

Download on the App Store